www.pogodaiklimat.ru

Погода и климат >> Архив погоды >> Польша >> Nowy Sacz


ПОГОДА в Nowy Sacz

  • Прогноз погоды в Nowy Sacz
  • Монитор погоды в Nowy Sacz
  • Климат города

АРХИВ ПОГОДЫ в Nowy Sacz

Время (UTC), дата Ветер
(напр.,м/с)
 
Видим.   Явления Облачность Т
(С)
Тd
(С)
f
(%)
Тe
(С)
Тes
(С)
Комфортность P
(гПа)
Po
(гПа)
Тmin
(С)
Tmax
(С)
R
(мм)
R24
(мм)
S
(см)
07 11.08 З 1 11 км н/о +23.6 +19.7 79 +29 +29 душно 1015.4 981.7
08 11.08 СЗ 1 15 км н/о +25.8 +19.4 68 +31 +31 очень
душно
1014.6 981.2
09 11.08 З 1 13 км н/о +27.6 +20.4 65 +34 +34 очень
душно
1013.5 980.3
10 11.08 З 2 16 км н/о +29.5 +21.2 61 +37 +37 очень
душно
1012.7 979.7
11 11.08 ЮВ 2 15 км н/о +32.3 +20.2 49 +39 +39 очень
душно
1011.6 979.0
12 11.08 Ю 4
{8}
21 км н/о +32.8 +17.8 41 +37 +37 очень
душно
1011.3 978.7
13 11.08 ЮВ 4
{10}
16 км н/о +33.6 +17.7 39 +37 +37 очень
душно
1010.6 978.1
14 11.08 ЮВ 5
{9}
20 км н/о +33.3 +15.3 34 +35 +35 душно 1010.1 977.6
15 11.08 ЮВ 3
{10}
21 км н/о +32.9 +17.1 39 +36 +36 очень
душно
1009.8 977.3
16 11.08 В 3 25 км н/о +31.9 +17.8 43 +36 +36 очень
душно
1009.7 977.1
17 11.08 В 2 29 км н/о +30.3 +17.7 47 +35 +35 очень
душно
1009.7 976.9
18 11.08 В 2
{10}
23 км н/о +28.2 +17.1 51 +32 +32 душно 1009.6 976.6 +21.4 +33.8
19 11.08 ЮВ 2 22 км н/о +26.5 +17.3 57 +31 +31 душно 1009.7 976.5
20 11.08 ЮВ 1 12 км н/о +23.3 +19.2 78 +30 +30 очень
душно
1010.0 976.5
21 11.08 В 3 17 км н/о +24.2 +17.4 66 +28 +28 душно 1010.0 976.6
22 11.08 штиль 0 13 км н/о +22.0 +17.4 75 +26 +26 душно 1010.2 976.5
23 11.08 СВ 1 16 км н/о +20.7 +16.9 79 +25 +25 комфорт 1010.7 976.8
00 12.08 СВ 1 15 км н/о +21.2 +17.2 78 +25 +25 комфорт 1011.0 977.2
01 12.08 ЮЗ 1 11 км н/о +19.6 +16.8 84 +23 +23 комфорт 1011.9 977.9
02 12.08 С 1 12 км н/о +19.1 +16.9 87 +22 +22 комфорт 1012.2 978.1
03 12.08 С 2 13 км н/о +19.1 +16.9 87 +21 +21 комфорт 1012.0 977.9
04 12.08 штиль 0 11 км н/о +18.8 +16.8 88 +20 +20 1012.3 978.2
05 12.08 ЮЗ 1 5000 м дымка н/о +18.7 +17.4 92 +21 +21 комфорт 1012.3 978.2
06 12.08 С 1 21 км н/о +20.0 +16.6 81 +24 +24 комфорт 1012.7 978.7 +18.6 +28.2
07 12.08 СЗ 1 30 км н/о +21.5 +15.8 70 +25 +25 комфорт 1012.3 978.5
08 12.08 С 2 28 км н/о +23.8 +15.8 61 +27 +27 жарко 1012.1 978.5
09 12.08 С 2 29 км н/о +23.4 +16.9 67 +29 +29 душно 1012.3 978.7
10 12.08 СЗ 2
{8}
30 км н/о +23.2 +15.8 63 +28 +28 душно 1012.4 978.8
11 12.08 С 2
{7}
35 км н/о +22.9 +15.5 63 +27 +27 душно 1012.9 979.2
12 12.08 СЗ 2-7
{8}
35 км н/о +21.0 +15.5 71 +25 +25 комфорт 1013.5 979.6
13 12.08 С 3 45 км н/о +19.4 +14.9 75 +21 +21 комфорт 1014.0 979.9
14 12.08 СЗ 1
{7}
22 км н/о +18.9 +14.8 77 +21 +21 комфорт 1014.6 980.4
15 12.08 З 2
{7}
15 км н/о +18.3 +14.6 79 +19 +19 1014.7 980.4
16 12.08 З 2 17 км н/о +18.0 +14.1 78 +19 +19 1015.2 980.9
17 12.08 З 2 6000 м слабый дождь н/о +16.9 +15.1 89 +17 +17 1015.6 981.1
18 12.08 З 1
{7}
11 км н/о +16.8 +15.1 90 +18 +18 1016.0 981.5 +16.7 +24.0 0.4
19 12.08 штиль 0 9000 м дымка н/о +16.9 +15.1 89 +17 +17 1016.1 981.6
20 12.08 ЮЗ 1 6000 м дымка н/о +16.8 +15.3 91 +18 +18 1016.2 981.7
21 12.08 З 1 8000 м дымка н/о +16.8 +15.3 91 +18 +18 1015.9 981.4
22 12.08 штиль 0 20 км ливневой дождь н/о +17.0 +14.3 84 +17 +17 1016.7 982.2
23 12.08 Ю 1 15 км н/о +16.7 +14.9 89 +18 +18 1017.1 982.6
00 13.08 СВ 1 8000 м слабый дождь н/о +16.6 +15.0 90 +17 +17 1017.1 982.5 0.3
01 13.08 З 1 7000 м дождь н/о +16.0 +14.5 91 +17 +17 1017.0 982.4
02 13.08 З 1 14 км слабый дождь н/о +15.3 +13.5 89 +16 +16 1016.8 982.1
03 13.08 С 1 21 км слаб. морось н/о +15.1 +13.0 87 +16 +16 1017.2 982.5
04 13.08 СЗ 1 14 км слабый дождь н/о +14.1 +12.1 88 +14 +14 1017.4 982.5
05 13.08 З 1 11 км морось н/о +13.9 +12.3 90 +14 +14 1018.1 983.2
06 13.08 З 1 24 км в посл. час дождь со снегом н/о +14.2 +12.1 87 +15 +15 1018.3 983.4 +13.7 +17.2 2
07 13.08 З 1 16 км ливневой дождь н/о +14.6 +12.3 86 +15 +15 1019.1 984.2
08 13.08 З 1 24 км в посл. час дождь со снегом н/о +14.9 +12.6 86 +15 +15 1019.4 984.6
09 13.08 З 3 28 км н/о +15.3 +11.5 78 +15 +15 1019.5 984.7
10 13.08 З 2 27 км н/о +16.2 +10.5 69 +16 +16 1019.7 985.0
11 13.08 З 2 30 км н/о +16.3 +10.2 67 +16 +16 1019.8 985.1
12 13.08 З 3
{31}
40 км н/о +16.5 +10.6 68 +16 +16 1019.8 985.1
13 13.08 З 2 35 км н/о +17.1 +11.4 69 +17 +17 1019.7 985.1
14 13.08 СЗ 1 35 км н/о +17.6 +11.4 67 +19 +19 1019.3 984.8
15 13.08 С 1 35 км в посл. час дождь н/о +18.2 +12.6 70 +20 +20 1019.5 985.1
16 13.08 С 1 30 км н/о +18.1 +12.1 68 +19 +19 1019.8 985.3
17 13.08 ЮЗ 1 30 км н/о +18.1 +13.4 74 +19 +19 1020.0 985.5
18 13.08 Ю 1 29 км н/о +17.5 +12.8 74 +19 +19 1020.3 985.7 +14.2 +18.5
19 13.08 ЮВ 1 14 км н/о +15.5 +13.0 85 +16 +16 1020.9 986.1
20 13.08 В 1 7000 м дымка н/о +14.7 +13.2 91 +15 +15 1021.2 986.3
21 13.08 В 1 5000 м дымка н/о +13.7 +12.8 94 +14 +14 1021.7 986.6
22 13.08 штиль 0 2100 м в посл. час морось н/о +13.0 +12.1 94 +12 +12 1022.2 987.0
23 13.08 В 1 6000 м в посл. час морось н/о +12.5 +11.7 95 +12 +12 1022.5 987.3
00 14.08 З 1 2500 м пыльная буря н/о +11.6 +10.8 95 +11 +11 1022.8 987.5
01 14.08 В 1 2500 м в посл. час морось н/о +11.2 +10.6 96 +11 +11 1023.0 987.6
02 14.08 штиль 0 500 м сильная пыльная буря н/о +10.7 +10.1 96 +10 +10 1023.0 987.5
03 14.08 штиль 0 200 м туман н/о +10.4 +9.9 97 +10 +10 1023.3 987.8
04 14.08 ЮЗ 1 400 м сильная пыльная буря н/о +10.2 +9.7 97 +10 +10 1023.9 988.3
05 14.08 ЮЗ 1 5000 м в посл. час морось н/о +11.2 +10.9 98 +11 +11 1023.8 988.4
06 14.08 З 1 12 км н/о +13.1 +12.6 97 +13 +13 1024.0 988.8 +10.1 +17.5
07 14.08 З 2 19 км н/о +15.6 +13.4 87 +15 +15 1024.0 989.1
08 14.08 З 1 22 км н/о +18.0 +13.1 73 +19 +19 1023.7 989.1
09 14.08 С 1 35 км н/о +20.9 +14.1 65 +25 +25 комфорт 1023.3 989.0
10 14.08 С 2 30 км н/о +21.8 +12.6 56 +24 +24 комфорт 1022.8 988.7
11 14.08 С 3 27 км н/о +22.5 +10.9 48 +25 +25 комфорт 1022.6 988.5
12 14.08 СВ 2 25 км н/о +23.3 +12.3 50 +26 +26 жарко 1022.5 988.5
13 14.08 С 2 30 км н/о +23.4 +12.4 50 +26 +26 жарко 1022.2 988.3
14 14.08 С 3 35 км н/о +23.5 +11.5 47 +25 +25 комфорт 1022.1 988.2
15 14.08 С 3 35 км н/о +22.9 +11.3 48 +25 +25 комфорт 1022.1 988.1
16 14.08 СВ 3
{7}
40 км н/о +22.8 +11.2 48 +25 +25 комфорт 1022.4 988.4
17 14.08 СВ 2 21 км н/о +21.7 +12.3 55 +24 +24 комфорт 1022.6 988.5
18 14.08 СВ 1
{7}
18 км н/о +20.1 +12.8 63 +23 +23 комфорт 1023.0 988.7 +13.2 +24.2
19 14.08 ЮВ 1 12 км н/о +18.8 +13.2 70 +21 +21 комфорт 1023.8 989.3
20 14.08 В 1 12 км н/о +16.8 +13.5 81 +18 +18 1024.6 989.8
21 14.08 Ю 1 14 км н/о +15.3 +13.0 86 +16 +16 1025.0 990.0
22 14.08 В 1 14 км н/о +15.2 +12.9 86 +16 +16 1025.1 990.1
23 14.08 В 1 9000 м дымка н/о +13.8 +12.4 91 +14 +14 1025.1 989.9
00 15.08 Ю 1 8000 м дымка н/о +12.8 +11.7 93 +13 +13 1025.1 989.8
01 15.08 штиль 0 2000 м дымка н/о +12.5 +11.7 95 +12 +12 1025.1 989.8
02 15.08 штиль 0 1300 м пыльная буря н/о +11.7 +10.9 95 +11 +11 1025.3 989.9
03 15.08 штиль 0 200 м туман н/о +11.1 +10.3 95 +10 +10 1025.3 989.8
04 15.08 штиль 0 7000 м пыльная буря н/о +10.9 +10.3 96 +10 +10 1025.5 990.0
05 15.08 Ю 1 5000 м пыльная буря н/о +11.5 +11.0 97 +11 +11 1025.5 990.0
06 15.08 З 1 18 км в посл. час морось н/о +13.7 +12.8 94 +14 +14 1025.1 989.9 +10.7 +20.1
07 15.08 Ю 1 24 км н/о +16.4 +13.3 82 +17 +17 1024.6 989.8
08 15.08 З 1 23 км н/о +19.4 +13.6 69 +22 +22 комфорт 1023.9 989.4
09 15.08 СВ 3 27 км н/о +23.1 +10.5 45 +25 +25 комфорт 1023.1 989.1
10 15.08 В 4 27 км н/о +23.8 +8.6 38 +24 +24 комфорт 1022.7 988.8
11 15.08 СВ 3 30 км н/о +24.2 +9.7 40 +25 +25 комфорт 1022.4 988.5
12 15.08 С 4 30 км н/о +24.8 +10.3 40 +26 +26 жарко 1022.0 988.2
13 15.08 СВ 3 26 км н/о +25.1 +10.2 39 +26 +26 жарко 1021.3 987.6
14 15.08 С 4 35 км н/о +25.3 +10.3 39 +26 +26 жарко 1021.1 987.4
15 15.08 С 4 30 км н/о +25.2 +11.0 41 +26 +26 жарко 1021.0 987.3
16 15.08 СВ 3 50 км н/о +24.4 +9.9 40 +25 +25 комфорт 1020.8 987.0
17 15.08 СВ 3 45 км н/о +23.4 +10.1 43 +25 +25 комфорт 1021.0 987.1
18 15.08 В 1 23 км н/о +21.2 +10.9 52 +23 +23 комфорт 1021.4 987.2 +13.7 +25.5
19 15.08 В 1 35 км н/о +19.0 +13.2 69 +21 +21 комфорт 1022.0 987.6
20 15.08 штиль 0 26 км н/о +16.7 +13.6 82 +17 +17 1022.4 987.7
21 15.08 Ю 1 30 км н/о +16.2 +12.6 79 +17 +17 1022.4 987.6
22 15.08 ЮЗ 1 10 км н/о +14.5 +12.7 89 +15 +15 1022.3 987.3
23 15.08 ЮЗ 1 14 км н/о +13.7 +11.7 88 +14 +14 1022.3 987.2
00 16.08 В 1 24 км н/о +13.5 +11.7 89 +14 +14 1022.4 987.3
01 16.08 ЮЗ 1 10 км н/о +12.4 +11.1 92 +12 +12 1022.1 986.9
02 16.08 В 1 14 км н/о +12.1 +11.0 93 +12 +12 1022.1 986.8
03 16.08 штиль 0 8000 м дымка н/о +11.4 +10.5 94 +11 +11 1022.1 986.8
04 16.08 штиль 0 7000 м дымка н/о +11.1 +10.3 95 +10 +10 1022.2 986.8
05 16.08 штиль 0 5000 м дымка н/о +11.8 +11.0 95 +11 +11 1022.3 987.0
06 16.08 З 1 23 км н/о +14.4 +12.9 91 +15 +15 1021.8 986.8 +11.0 +21.2
07 16.08 ЮЗ 1 30 км н/о +17.4 +13.3 77 +18 +18 1021.2 986.6
08 16.08 ЮЗ 1 28 км н/о +20.7 +13.2 62 +24 +24 комфорт 1020.7 986.5
09 16.08 З 1 29 км н/о +23.6 +11.9 48 +25 +25 комфорт 1020.2 986.3
10 16.08 З 1 35 км н/о +25.8 +10.0 37 +27 +27 жарко 1019.6 986.0
11 16.08 З 1 30 км н/о +27.3 +10.5 35 +28 +28 жарко 1019.0 985.6
12 16.08 ЮЗ 1 30 км н/о +28.6 +11.6 35 +29 +29 жарко 1018.5 985.3
13 16.08 СВ 1 29 км н/о +28.2 +11.3 35 +29 +29 жарко 1018.1 984.8
14 16.08 СЗ 1 30 км н/о +27.9 +14.9 45 +30 +30 жарко 1017.9 984.6
15 16.08 СЗ 1 35 км н/о +28.4 +11.9 36 +29 +29 жарко 1017.5 984.3
16 16.08 СВ 1 45 км н/о +28.0 +10.2 33 +28 +28 жарко 1017.6 984.3
17 16.08 СВ 1 35 км н/о +26.7 +12.4 41 +28 +28 жарко 1017.8 984.4
18 16.08 В 1 26 км н/о +23.3 +14.3 57 +27 +27 душно 1018.8 985.0 +14.4 +28.9
19 16.08 Ю 1 19 км н/о +20.5 +15.1 71 +24 +24 комфорт 1019.7 985.5
20 16.08 ЮВ 2 25 км н/о +20.2 +13.6 66 +23 +23 комфорт 1020.1 985.9
21 16.08 З 1 11 км н/о +18.1 +14.6 80 +19 +19 1020.7 986.2
22 16.08 ЮВ 1 11 км н/о +17.1 +14.9 87 +18 +18 1021.0 986.4
23 16.08 штиль 0 12 км н/о +16.5 +14.3 87 +16 +16 1021.1 986.4
00 17.08 В 1 16 км н/о +16.2 +14.0 87 +17 +17 1020.9 986.2
01 17.08 штиль 0 6000 м дымка н/о +15.1 +13.8 92 +15 +15 1021.3 986.4
02 17.08 штиль 0 6000 м дымка н/о +14.7 +13.6 93 +14 +14 1021.3 986.4
03 17.08 штиль 0 3800 м дымка н/о +14.3 +13.2 93 +14 +14 1021.5 986.5
04 17.08 ЮЗ 1 3100 м дымка н/о +14.4 +13.6 95 +15 +15 1021.8 986.8
05 17.08 З 1 8000 м дымка н/о +15.2 +14.4 95 +16 +16 1022.1 987.2
06 17.08 ЮЗ 1 9000 м дымка н/о +16.1 +15.0 93 +17 +17 1022.3 987.5 +14.3 +23.3
07 17.08 З 1 11 км н/о +17.9 +15.7 87 +19 +19 1022.0 987.4
08 17.08 З 1 10 км н/о +19.5 +15.8 79 +23 +23 комфорт 1022.0 987.6
09 17.08 С 1 14 км н/о +21.4 +15.7 70 +25 +25 комфорт 1021.5 987.4
10 17.08 ЮЗ 1 14 км н/о +22.6 +16.2 67 +27 +27 душно 1020.7 986.7
11 17.08 З 2 16 км н/о +24.2 +17.0 64 +28 +28 душно 1020.0 986.2
12 17.08 СЗ 2 19 км н/о +26.1 +17.7 60 +30 +30 душно 1019.0 985.5
13 17.08 СВ 2 24 км н/о +27.3 +14.3 45 +30 +30 душно 1018.4 985.0
14 17.08 СВ 3 30 км н/о +27.8 +11.4 36 +29 +29 жарко 1017.8 984.5
15 17.08 СВ 2 28 км н/о +27.8 +10.5 34 +28 +28 жарко 1017.6 984.3
16 17.08 СВ 2 28 км н/о +26.8 +14.2 46 +29 +29 жарко 1017.6 984.2
17 17.08 СВ 1 17 км н/о +25.8 +14.9 51 +29 +29 душно 1017.8 984.3
18 17.08 З 1 14 км н/о +23.5 +16.0 63 +27 +27 душно 1018.7 984.9 +16.1 +28.0
19 17.08 Ю 1 14 км н/о +22.4 +17.5 74 +27 +27 душно 1019.3 985.3
20 17.08 ЮВ 1 11 км слабый дождь н/о +20.7 +17.1 80 +25 +25 комфорт 1019.9 985.7
21 17.08 ЮЗ 2 6000 м слаб. ливневой дождь н/о +19.4 +17.9 91 +22 +22 комфорт 1019.7 985.4
22 17.08 Ю 1 9000 м дымка н/о +19.3 +17.6 90 +22 +22 комфорт 1019.4 985.1
23 17.08 ЮЗ 1 5000 м дымка н/о +18.6 +17.3 92 +21 +21 комфорт 1019.5 985.1
00 18.08 штиль 0 4000 м дымка н/о +17.8 +16.7 93 +18 +18 1019.3 984.8 0.9
01 18.08 Ю 1 900 м дымка н/о +17.2 +16.2 94 +18 +18 1019.2 984.6
02 18.08 Ю 1 3200 м пыльная буря н/о +16.5 +15.7 95 +17 +17 1019.0 984.4
03 18.08 В 2 7000 м туман н/о +16.5 +15.7 95 +17 +17 1019.3 984.7
04 18.08 ЮЗ 1 2100 м в посл. час морось н/о +15.9 +15.1 95 +17 +17 1019.7 985.0
05 18.08 штиль 0 5000 м дымка н/о +16.4 +15.6 95 +16 +16 1019.9 985.2
06 18.08 СЗ 1 8000 м дымка н/о +17.9 +16.6 92 +19 +19 1019.9 985.4 +15.9 +23.5 1

 

Местоположение метеостанции Nowy Sacz (Польша): широта 49.62 долгота 20.70 высота над уровнем моря 295 м.

В архиве по умолчанию представлена погода в Nowy Sacz за последнюю неделю. Архивные данные за месяц целиком и за предыдущие месяцы, начиная с января 2011 года, Вы можете получить, выбрав интересующий диапазон дат из раскрывающегося списка и нажав кнопку "Ввод!".

Внимание! Время в таблицах - всемирное. Для получения местного времени необходимо прибавить поправку, которая в Nowy Sacz равна 1 ч.

Смотрите также архив погоды в соседних городах и на ближайших метеорологических станциях:

Погода в Tarnow (Польша) (50 км)
Погода в Lomnicky Stit (Словакия) (58 км)
Погода в Zakopane (Польша) (64 км)
Погода в Kasprowy Wierch (Польша) (68 км)
Погода в Poprad (Словакия) (69 км)
Погода в Poprad-Ganovce (Словакия) (71 км)
Погода в Strbske Pleso (Словакия) (71 км)
Погода в Krosno (Польша) (76 км)
Погода в Liesek (Словакия) (79 км)
Погода в Presov (Словакия) (80 км)

Пояснения к столбцам:

Ветер - указаны скорость ветра в м/с - средняя за 10 мин, порывы в срок и между сроками (в фигурных скобках) и направление, откуда дует ветер: С - северный, СВ - северо-восточный, В - восточный, ЮВ - юго-восточный, Ю - южный, ЮЗ - юго-западный, З - западный, СЗ - северо-западный.
Видимость - горизонтальная дальность видимости в метрах или километрах. При видимости от 1 до 10 км при отсутствии осадков обычно наблюдается дымка, при ухудшении видимости до 1 км и менее - туман. В сухую погоду видимость может ухудшаться дымом, пылью или мглою.
Явления - указаны атмосферные явления, наблюдавшиеся в срок или в последний час перед сроком; фигурными скобками обозначены явления, наблюдавшиеся между сроками (за 1-3 часа до срока); квадратными скобками обозначены град или гололедные отложения с указанием их диаметра в мм.
Облачность - указаны через наклонную черту общая и нижняя облачность в баллах и высота нижней границы облаков в метрах; квадратными скобками обозначены формы облаков: Ci - перистые, Cs - перисто-слоистые, Cc - перисто-кучевые, Ac - высококучевые, As - высокослоистые, Sc - слоисто-кучевые, Ns - слоисто-дождевые, Cu - кучевые, Cb - кучево-дождевые. Подробнее классификацию облаков см. в Атласе облаков (PDF).
T - Температура воздуха - температура, измеренная на высоте 2 м над землей.
Td - Температура точки росы - температура, при понижении до которой содержащийся в воздухе водяной пар достигнет насыщения.
f - Относительная влажность воздуха - влажноcть воздуха, измеренная на высоте 2 м над землей.
Te - Эффективная температура - температура, которую ощущает одетый по сезону человек в тени. Характеристика душности погоды. При расчете учитывается влияние влажности воздуха и скорости ветра на теплоощущения человека.
Tes - Эффективная температура на солнце - температура, которую ощущает человек, с поправкой на солнечный нагрев. Характеристика знойности погоды. Зависит от высоты солнца над горизонтом, облачности и скорости ветра. Ночью, в пасмурную погоду, а также при ветре 12 м/с и более поправка равна нулю.
P - Атмосферное давление - приведенное к уровню моря атмосферное давление.
Po - Атмосферное давление - измеренное на уровне метеостанции атмосферное давление.
Tmin - Минимальная температура - минимум температуры воздуха на высоте 2 м над землей.
Tmax - Максимальная температура - максимум температуры воздуха на высоте 2 м над землей.
R - Количество осадков - Количество выпавших осадков за период времени, мм. При наведении курсора мыши на число - период времени, за который выпало указанное количество осадков.
R24 - Количество осадков - Количество выпавших осадков за 24 часа, мм.
S - Снежный покров - Высота снежного покрова, см. При наведении курсора мыши на число - состояние снежного покрова и степень покрытия местности в баллах.